Wind_Speed
18 19 19 17 16 16 16 18 10 9 9 14 7 8 11 11 8 9 10 13 18 20 22 21 21 22 21 19 14 11 10 10
14 17 19 22 10 12 11 14 11 6 14 6 12 9 6 9 8 10 11 13 16 16 17 17 19 18 17 15 11 11 11 9
13 17 18 13 13 11 13 6 9 6 3 8 6 11 3 8 10 13 15 16 17 16 16 16 16 16 15 13 14 13 12 12
14 18 20 19 21 18 12 11 11 6 10 5 10 8 4 9 15 18 17 17 16 17 17 16 17 16 15 15 15 14 13 11
16 17 16 19 24 20 20 18 15 7 1 4 8 10 2 14 17 20 20 19 19 19 19 18 17 16 16 17 17 16 15 12
14 16 16 16 19 20 20 14 11 9 15 2 3 5 10 13 15 19 20 22 21 21 20 18 17 18 18 17 17 18 15 14
19 17 13 18 20 22 21 20 19 15 4 4 1 6 10 12 18 20 21 23 24 22 22 21 20 20 19 18 19 18 17 15
21 13 17 17 17 21 23 19 17 16 16 15 13 8 3 2 16 22 23 24 25 24 24 24 24 23 21 20 19 18 17 15
15 18 16 17 16 16 19 22 20 15 12 15 17 14 2 3 11 21 24 26 26 27 28 27 26 24 23 22 21 19 17 15
12 15 17 12 16 18 15 13 13 11 13 15 18 22 6 14 11 20 26 27 27 26 27 28 27 25 23 22 20 18 16 14
12 12 9 20 5 17 11 7 10 11 6 14 14 16 13 13 9 17 25 27 28 27 28 28 28 27 25 24 22 19 17 15
6 16 15 14 18 18 4 8 5 9 7 9 13 9 3 9 5 11 21 26 26 28 29 28 28 27 27 25 23 21 19 17
13 1 11 14 9 6 12 3 7 8 7 9 8 11 20 10 6 11 20 24 25 27 28 28 28 27 26 25 23 21 23 20
13 6 9 23 4 6 7 6 7 7 8 9 11 12 11 7 7 14 21 24 27 29 28 27 27 27 26 28 26 26 23 20
2 4 16 5 34 14 8 6 6 8 10 10 10 11 11 7 6 13 19 24 27 28 29 28 29 27 26 25 25 24 21 17
7 10 11 19 11 7 8 8 7 9 9 10 10 10 9 4 7 13 18 23 25 28 30 30 31 28 28 29 26 22 20 18
10 11 17 2 6 7 8 8 7 8 8 9 8 8 6 4 6 13 18 21 26 30 32 32 29 31 29 29 22 17 15 14
9 8 8 9 5 9 9 8 6 6 7 6 7 6 4 2 7 11 16 23 28 26 28 28 35 26 23 20 16 17 16 11
11 13 12 15 16 15 13 11 7 6 5 6 5 4 4 4 6 12 13 23 31 30 31 28 26 32 28 18 16 17 14 14
Wind_Direction
214 220 241 240 236 275 294 289 234 7 180 150 65 94 121 134 146 166 172 184 195 196 199 202 205 206 206 209 208 203 194 198
182 222 227 244 252 221 239 270 267 91 303 141 173 77 83 142 173 144 155 168 176 185 189 195 199 200 198 202 193 183 181 177
188 203 226 207 244 257 283 182 276 283 96 253 136 91 45 131 157 160 161 160 166 172 176 177 180 184 183 178 172 167 168 164
231 211 221 239 216 239 242 220 265 317 300 203 82 52 147 146 156 165 165 164 163 166 168 169 166 164 166 165 158 160 163 169
238 202 218 226 238 229 246 257 261 269 1 38 104 129 200 149 165 166 168 169 165 166 166 166 165 165 163 161 164 175 181 171
247 235 200 220 241 242 254 256 248 224 255 319 82 165 139 161 174 173 176 174 171 169 171 171 169 165 164 160 169 169 156 153
256 269 240 235 216 232 240 252 263 275 307 312 70 349 82 164 181 183 186 184 179 176 175 175 171 168 163 162 162 157 157 158
249 251 249 254 253 216 232 239 254 274 280 310 315 269 197 180 193 196 192 195 187 183 178 177 172 168 166 163 161 164 162 162
238 232 240 236 243 248 226 234 233 246 268 260 267 271 295 343 211 206 201 197 191 187 180 177 174 171 170 167 166 169 169 173
251 228 224 250 224 225 246 245 240 259 287 290 278 278 310 287 269 206 205 198 192 189 182 179 175 174 171 171 171 171 174 173
246 242 234 244 197 199 218 211 242 269 333 296 281 282 291 328 215 219 207 199 192 188 184 179 176 174 172 171 172 174 175 179
331 265 231 246 186 203 235 245 17 10 22 358 328 275 97 13 288 226 200 195 191 186 182 180 178 175 173 174 175 176 179 180
197 140 290 87 43 127 201 89 38 24 22 356 344 337 322 318 308 212 190 189 188 185 184 183 179 177 177 177 176 178 183 182
247 204 242 359 193 267 85 88 31 5 3 356 337 326 329 313 253 201 183 187 186 184 183 183 181 180 179 180 180 184 182 182
54 42 351 35 289 45 24 27 16 353 353 342 329 334 326 323 220 197 185 186 188 181 180 183 182 182 179 180 184 187 186 187
289 147 150 237 289 351 355 356 345 332 332 333 333 326 320 309 212 192 188 186 191 184 182 184 182 180 175 185 189 191 189 192
294 288 286 229 70 24 6 353 349 330 314 315 318 329 328 264 228 203 194 192 190 185 182 184 180 180 185 186 180 177 187 186
286 12 334 325 5 338 334 343 349 349 346 328 308 306 305 257 211 211 198 192 189 193 189 183 179 170 175 173 172 196 195 192
276 297 300 296 298 297 296 281 297 302 318 321 334 312 271 209 189 195 181 193 203 211 207 195 184 157 154 167 214 206 185 187
Height
1449 1452 1456 1457 1462 1446 1454 1439 1453 1445 1455 1432 1436 1445 1448 1453 1461 1465 1468 1471 1476 1480 1485 1489 1492 1496 1500 1503 1504 1506 1509 1511
1444 1451 1452 1453 1442 1465 1455 1480 1479 1474 1459 1445 1450 1442 1444 1450 1459 1464 1469 1473 1476 1480 1483 1488 1491 1495 1499 1501 1504 1506 1509 1509
1444 1452 1451 1455 1458 1453 1443 1476 1463 1466 1475 1470 1436 1440 1445 1447 1456 1464 1469 1472 1476 1480 1484 1487 1490 1493 1497 1500 1502 1504 1507 1509
1443 1438 1442 1443 1451 1450 1459 1467 1449 1452 1454 1422 1429 1436 1444 1447 1455 1462 1467 1472 1476 1479 1483 1486 1489 1492 1495 1498 1500 1503 1506 1508
1453 1439 1439 1446 1441 1438 1438 1433 1449 1460 1451 1430 1430 1440 1446 1447 1454 1461 1466 1471 1474 1478 1482 1486 1489 1492 1493 1496 1498 1500 1503 1506
1453 1445 1434 1448 1444 1439 1436 1445 1442 1441 1438 1428 1430 1435 1444 1448 1456 1462 1467 1470 1473 1477 1481 1484 1487 1490 1493 1495 1496 1500 1504 1507
1435 1430 1428 1433 1439 1441 1444 1438 1445 1433 1439 1426 1429 1432 1439 1446 1454 1459 1465 1468 1470 1474 1478 1482 1485 1488 1491 1494 1496 1500 1504 1506
1442 1431 1431 1434 1429 1431 1435 1436 1436 1434 1436 1425 1429 1431 1436 1442 1449 1455 1460 1464 1467 1471 1474 1479 1482 1486 1490 1493 1497 1501 1503 1506
1447 1430 1431 1443 1431 1425 1426 1425 1426 1440 1432 1430 1430 1429 1431 1437 1444 1450 1455 1459 1463 1467 1471 1475 1480 1484 1487 1491 1495 1499 1503 1504
1440 1432 1459 1424 1412 1419 1422 1422 1422 1426 1428 1429 1429 1427 1430 1436 1439 1443 1449 1455 1461 1466 1470 1473 1477 1482 1487 1491 1495 1499 1502 1504
1441 1438 1427 1419 1412 1412 1421 1426 1423 1423 1425 1429 1428 1427 1431 1433 1431 1437 1444 1451 1456 1462 1468 1472 1476 1480 1485 1488 1493 1497 1500 1503
1451 1443 1446 1414 1403 1411 1415 1436 1421 1425 1427 1433 1431 1433 1429 1435 1434 1435 1441 1448 1455 1460 1465 1471 1474 1478 1482 1486 1490 1494 1498 1500
1429 1473 1435 1413 1416 1417 1440 1443 1433 1435 1438 1438 1436 1438 1434 1434 1434 1434 1439 1445 1453 1459 1463 1469 1473 1477 1482 1485 1489 1494 1495 1497
1422 1431 1452 1423 1425 1429 1429 1430 1435 1439 1439 1440 1440 1438 1436 1435 1434 1435 1438 1445 1450 1455 1461 1467 1472 1476 1480 1482 1487 1489 1492 1495
1426 1433 1448 1447 1438 1415 1431 1434 1436 1439 1439 1439 1438 1437 1436 1436 1434 1436 1439 1445 1450 1453 1458 1464 1468 1473 1478 1484 1487 1490 1493 1495
1424 1431 1441 1441 1437 1437 1437 1437 1437 1439 1440 1439 1439 1437 1436 1435 1435 1437 1440 1444 1449 1453 1457 1462 1466 1471 1475 1479 1485 1489 1492 1493
1429 1426 1430 1424 1434 1436 1439 1438 1438 1439 1439 1439 1439 1437 1437 1436 1437 1437 1440 1444 1448 1451 1454 1460 1464 1465 1473 1478 1484 1492 1495 1497
1428 1428 1436 1434 1436 1440 1439 1439 1439 1440 1439 1439 1439 1438 1437 1436 1437 1438 1439 1441 1445 1450 1452 1454 1451 1462 1474 1481 1480 1486 1491 1498
1428 1432 1434 1434 1435 1436 1437 1438 1438 1439 1439 1439 1437 1437 1437 1437 1438 1437 1436 1438 1440 1443 1446 1450 1455 1463 1471 1470 1481 1487 1486 1494